This is the latest recevied weather packets stored in our database for station/object KE5QKR. If no packets are shown the sender has not sent any weather packets the latest 1 day(s).
| Time | Temp. | Humidity | Pressure | Rain* | Wind** | Luminosity | Snow |
|---|---|---|---|---|---|---|---|
| 1778019677 | 25.56° C | 75% | 1010.3 hPa | 0 mm | 0 m/s | 121 W/m² | - |
| 1778019374 | 25.56° C | 76% | 1010.2 hPa | 0 mm | 1.34 m/s, 198° | 136 W/m² | - |
| 1778019070 | 25.56° C | 75% | 1010 hPa | 0 mm | 0 m/s | 98 W/m² | - |
| 1778018768 | 26.11° C | 74% | 1010.3 hPa | 0 mm | 0 m/s | 145 W/m² | - |
| 1778018466 | 26.11° C | 74% | 1010.2 hPa | 0 mm | 0.45 m/s, 268° | 144 W/m² | - |
| 1778018163 | 26.67° C | 73% | 1010.4 hPa | 0 mm | 0.45 m/s, 311° | 184 W/m² | - |
| 1778017862 | 26.67° C | 72% | 1010.5 hPa | 0 mm | 0 m/s | 200 W/m² | - |
| 1778017560 | 26.67° C | 72% | 1010.5 hPa | 0 mm | 0.45 m/s, 315° | 223 W/m² | - |
| 1778017256 | 26.11° C | 72% | 1010.5 hPa | 0 mm | 0 m/s | 245 W/m² | - |
| 1778016954 | 25.56° C | 73% | 1010.2 hPa | 0 mm | 0.45 m/s, 294° | 244 W/m² | - |
| 1778016650 | 25.56° C | 73% | 1010.6 hPa | 0 mm | 0.45 m/s, 315° | 105 W/m² | - |
| 1778016346 | 26.11° C | 72% | 1010.3 hPa | 0 mm | 0.45 m/s, 188° | 125 W/m² | - |
| 1778016044 | 26.67° C | 72% | 1010.4 hPa | 0 mm | 0 m/s | 163 W/m² | - |
| 1778015740 | 26.67° C | 70% | 1010.3 hPa | 0 mm | 0.45 m/s, 22° | 218 W/m² | - |
| 1778015437 | 26.67° C | 71% | 1010.5 hPa | 0 mm | 0.89 m/s, 276° | 482 W/m² | - |
| 1778015133 | 26.67° C | 71% | 1010.4 hPa | 0 mm | 0 m/s | 224 W/m² | - |
| 1778014831 | 26.67° C | 71% | 1010.3 hPa | 0 mm | 0 m/s | 230 W/m² | - |
| 1778014529 | 26.67° C | 69% | 1010.5 hPa | 0 mm | 0.89 m/s, 170° | 263 W/m² | - |
| 1778014226 | 26.67° C | 70% | 1010.3 hPa | 0 mm | 0.45 m/s, 353° | 242 W/m² | - |
| 1778013924 | 26.67° C | 69% | 1010.3 hPa | 0 mm | 0.45 m/s, 72° | 251 W/m² | - |
| 1778013621 | 27.22° C | 67% | 1010.5 hPa | 0 mm | 0.89 m/s, 72° | 251 W/m² | - |
| 1778013317 | 27.22° C | 69% | 1010.4 hPa | 0 mm | 0 m/s | 278 W/m² | - |
| 1778013014 | 28.33° C | 65% | 1010.3 hPa | 0 mm | 1.34 m/s, 284° | 409 W/m² | - |
| 1778012710 | 27.22° C | 67% | 1010.4 hPa | 0 mm | 0 m/s | 551 W/m² | - |
| 1778012406 | 27.22° C | 68% | 1010.7 hPa | 0 mm | 0.89 m/s, 312° | 175 W/m² | - |
* Rain latest hour (hover to see other rain measurements)
** Current wind speed in m/s (hover to see current wind gust speed)